Simultaneous Nadir Overpasses (SNOs) Predictions

Prediction of SNOs between AQUA and GOES-15 Satellite Orbit:

Table of predicted SNOs for the next 14.0 days since TLE Epoch: 4/17/2020
Index Date Time (AQUA) AQUA Lat,Lon GOES-15 Lat,Lon Distance(km) Time Diff (sec)
1 04/18/2020 09:55:17 -0.85,-125.00 -0.19,-127.97 338.61 80
2 04/18/2020 22:16:41 -0.27,-130.19 0.17,-127.99 249.86 80
3 04/20/2020 22:04:29 0.34,-127.23 0.17,-128.04 92.03 80
4 04/21/2020 10:25:43 0.77,-132.38 -0.15,-128.06 491.70 80
5 04/22/2020 21:52:18 1.02,-124.28 0.18,-128.09 433.50 80
6 04/23/2020 10:13:31 0.15,-129.42 -0.15,-128.10 150.51 80
7 04/25/2020 10:01:21 -0.53,-126.48 -0.16,-128.14 190.02 80
8 04/25/2020 22:22:44 -0.59,-131.66 0.14,-128.15 399.69 80
9 04/27/2020 22:10:32 0.03,-128.71 0.14,-128.18 59.94 80
10 04/29/2020 21:58:20 0.66,-125.75 0.14,-128.20 279.14 80
11 04/30/2020 10:19:35 0.44,-130.90 -0.12,-128.22 304.66 80




NCC Satellite Simultaneous Nadir Overpasses (SNOs) Prediction Service
